Year,Month,Day,Hour,Minute,Value (Times are PST for temperature in C)
2021,12,07,00,00,3.50
2021,12,07,00,01,3.50
2021,12,07,00,02,3.50
2021,12,07,00,03,3.50
2021,12,07,00,04,3.50
2021,12,07,00,05,3.50
2021,12,07,00,06,3.50
2021,12,07,00,07,3.50
2021,12,07,00,08,3.50
2021,12,07,00,09,3.50
2021,12,07,00,10,3.50
2021,12,07,00,11,3.40
2021,12,07,00,12,3.40
2021,12,07,00,13,3.40
2021,12,07,00,14,3.50
2021,12,07,00,15,3.40
2021,12,07,00,16,3.40
2021,12,07,00,17,3.40
2021,12,07,00,18,3.40
2021,12,07,00,19,3.50
2021,12,07,00,20,3.50
2021,12,07,00,21,3.50
2021,12,07,00,22,3.50
2021,12,07,00,23,3.50
2021,12,07,00,24,3.50
2021,12,07,00,25,3.50
2021,12,07,00,26,3.50
2021,12,07,00,27,3.50
2021,12,07,00,28,3.50
2021,12,07,00,29,3.50
2021,12,07,00,30,3.50
2021,12,07,00,31,3.50
2021,12,07,00,32,3.50
2021,12,07,00,33,3.50
2021,12,07,00,34,3.50
2021,12,07,00,35,3.50
2021,12,07,00,36,3.50
2021,12,07,00,37,3.50
2021,12,07,00,38,3.50
2021,12,07,00,39,3.50
2021,12,07,00,40,3.50
2021,12,07,00,41,3.50
2021,12,07,00,42,3.50
2021,12,07,00,43,3.50
2021,12,07,00,44,3.50
2021,12,07,00,45,3.50
2021,12,07,00,46,3.50
2021,12,07,00,47,3.50
2021,12,07,00,48,3.50
2021,12,07,00,49,3.50
2021,12,07,00,50,3.50
2021,12,07,00,51,3.50
2021,12,07,00,52,3.50
2021,12,07,00,53,3.50
2021,12,07,00,54,3.50
2021,12,07,00,55,3.50
2021,12,07,00,56,3.50
2021,12,07,00,57,3.50
2021,12,07,00,58,3.50
2021,12,07,00,59,3.50
2021,12,07,01,00,3.60
2021,12,07,01,01,3.60
2021,12,07,01,02,3.60
2021,12,07,01,03,3.60
2021,12,07,01,04,3.60
2021,12,07,01,05,3.60
2021,12,07,01,06,3.60
2021,12,07,01,07,3.60
2021,12,07,01,08,3.60
2021,12,07,01,09,3.60
2021,12,07,01,10,3.60
2021,12,07,01,11,3.60
2021,12,07,01,12,3.60
2021,12,07,01,13,3.60
2021,12,07,01,14,3.60
2021,12,07,01,15,3.60
2021,12,07,01,16,3.60
2021,12,07,01,17,3.60
2021,12,07,01,18,3.60
2021,12,07,01,19,3.60
2021,12,07,01,20,3.60
2021,12,07,01,21,3.60
2021,12,07,01,22,3.60
2021,12,07,01,23,3.60
2021,12,07,01,24,3.60
2021,12,07,01,25,3.60
2021,12,07,01,26,3.60
2021,12,07,01,27,3.60
2021,12,07,01,28,3.60
2021,12,07,01,29,3.70
2021,12,07,01,30,3.70
2021,12,07,01,31,3.70
2021,12,07,01,32,3.70
2021,12,07,01,33,3.70
2021,12,07,01,34,3.70
2021,12,07,01,35,3.70
2021,12,07,01,36,3.70
2021,12,07,01,37,3.70
2021,12,07,01,38,3.70
2021,12,07,01,39,3.70
2021,12,07,01,40,3.70
2021,12,07,01,41,3.70
2021,12,07,01,42,3.70
2021,12,07,01,43,3.70
2021,12,07,01,44,3.70
2021,12,07,01,45,3.70
2021,12,07,01,46,3.70
2021,12,07,01,47,3.70
2021,12,07,01,48,3.70
2021,12,07,01,49,3.70
2021,12,07,01,50,3.70
2021,12,07,01,51,3.70
2021,12,07,01,52,3.70
2021,12,07,01,53,3.70
2021,12,07,01,54,3.70
2021,12,07,01,55,3.70
2021,12,07,01,56,3.70
2021,12,07,01,57,3.70
2021,12,07,01,58,3.70
2021,12,07,01,59,3.70
2021,12,07,02,00,3.70
2021,12,07,02,01,3.70
2021,12,07,02,02,3.70
2021,12,07,02,03,3.70
2021,12,07,02,04,3.70
2021,12,07,02,05,3.60
2021,12,07,02,06,3.60
2021,12,07,02,07,3.60
2021,12,07,02,08,3.60
2021,12,07,02,09,3.60
2021,12,07,02,10,3.60
2021,12,07,02,11,3.60
2021,12,07,02,12,3.60
2021,12,07,02,13,3.60
2021,12,07,02,14,3.60
2021,12,07,02,15,3.60
2021,12,07,02,16,3.60
2021,12,07,02,17,3.60
2021,12,07,02,18,3.60
2021,12,07,02,19,3.60
2021,12,07,02,20,3.60
2021,12,07,02,21,3.60
2021,12,07,02,22,3.60
2021,12,07,02,23,3.60
2021,12,07,02,24,3.60
2021,12,07,02,25,3.60
2021,12,07,02,26,3.60
2021,12,07,02,27,3.60
2021,12,07,02,28,3.60
2021,12,07,02,29,3.60
2021,12,07,02,30,3.60
2021,12,07,02,31,3.60
2021,12,07,02,32,3.60
2021,12,07,02,33,3.60
2021,12,07,02,34,3.60
2021,12,07,02,35,3.60
2021,12,07,02,36,3.60
2021,12,07,02,37,3.60
2021,12,07,02,38,3.60
2021,12,07,02,39,3.60
2021,12,07,02,40,3.60
2021,12,07,02,41,3.60
2021,12,07,02,42,3.60
2021,12,07,02,43,3.60
2021,12,07,02,44,3.60
2021,12,07,02,45,3.60
2021,12,07,02,46,3.60
2021,12,07,02,47,3.60
2021,12,07,02,48,3.60
2021,12,07,09,24,4.40
2021,12,07,09,25,4.40
2021,12,07,09,26,4.40
2021,12,07,09,27,4.40
2021,12,07,09,28,4.40
2021,12,07,09,29,4.40
2021,12,07,09,30,4.50
2021,12,07,09,31,4.50
2021,12,07,09,32,4.50
2021,12,07,09,33,4.50
2021,12,07,09,34,4.50
2021,12,07,09,35,4.50
2021,12,07,09,36,4.50
2021,12,07,09,37,4.50
2021,12,07,09,38,4.50
2021,12,07,09,39,4.50
2021,12,07,09,40,4.60
2021,12,07,09,41,4.60
2021,12,07,09,42,4.60
2021,12,07,09,43,4.60
2021,12,07,09,44,4.60
2021,12,07,09,45,4.60
2021,12,07,09,46,4.60
2021,12,07,09,47,4.60
2021,12,07,09,48,4.60
2021,12,07,09,49,4.60
2021,12,07,09,50,4.60
2021,12,07,09,51,4.60
2021,12,07,09,52,4.60
2021,12,07,09,53,4.70
2021,12,07,09,54,4.70
2021,12,07,09,55,4.70
2021,12,07,09,56,4.70
2021,12,07,09,57,4.70
2021,12,07,09,58,4.70
2021,12,07,09,59,4.70
2021,12,07,10,00,4.70
2021,12,07,10,01,4.70
2021,12,07,10,02,4.70
2021,12,07,10,03,4.70
2021,12,07,10,04,4.70
2021,12,07,10,05,4.70
2021,12,07,10,06,4.70
2021,12,07,10,07,4.70
2021,12,07,10,08,4.70
2021,12,07,10,09,4.80
2021,12,07,10,10,4.80
2021,12,07,10,11,4.80
2021,12,07,10,12,4.80
2021,12,07,10,13,4.80
2021,12,07,10,14,4.80
2021,12,07,10,15,4.80
2021,12,07,10,16,4.80
2021,12,07,10,17,4.80
2021,12,07,10,18,4.80
2021,12,07,10,19,4.80
2021,12,07,10,20,4.80
2021,12,07,10,21,4.80
2021,12,07,10,22,4.80
2021,12,07,10,23,4.90
2021,12,07,10,24,4.90
2021,12,07,10,25,4.90
2021,12,07,10,26,4.90
2021,12,07,10,27,4.90
2021,12,07,10,28,4.90
2021,12,07,10,29,4.90
2021,12,07,10,30,4.90
2021,12,07,10,31,4.90
2021,12,07,10,32,4.90
2021,12,07,10,33,4.90
2021,12,07,10,34,5.00
2021,12,07,10,35,5.00
2021,12,07,10,36,5.00
2021,12,07,10,37,5.00
2021,12,07,10,38,5.00
2021,12,07,10,39,5.00
2021,12,07,10,40,5.00
2021,12,07,10,41,5.10
2021,12,07,10,42,5.10
2021,12,07,10,43,5.10
2021,12,07,10,44,5.10
2021,12,07,10,45,5.10
2021,12,07,10,46,5.10
2021,12,07,10,47,5.10
2021,12,07,10,48,5.10
2021,12,07,10,49,5.10
2021,12,07,10,50,5.10
2021,12,07,10,51,5.10
2021,12,07,10,52,5.10
2021,12,07,10,53,5.10
2021,12,07,10,54,5.20
2021,12,07,10,55,5.20
2021,12,07,10,56,5.20
2021,12,07,10,57,5.20
2021,12,07,10,58,5.20
2021,12,07,10,59,5.20
2021,12,07,11,00,5.20
2021,12,07,11,01,5.20
2021,12,07,11,02,5.20
2021,12,07,11,03,5.20
2021,12,07,11,04,5.20
2021,12,07,11,05,5.20
2021,12,07,11,06,5.20
2021,12,07,11,07,5.30
2021,12,07,11,08,5.30
2021,12,07,11,09,5.30
2021,12,07,11,10,5.30
2021,12,07,11,11,5.30
2021,12,07,11,12,5.20
2021,12,07,11,13,5.20
2021,12,07,11,14,5.30
2021,12,07,11,15,5.30
2021,12,07,11,16,5.30
2021,12,07,11,17,5.30
2021,12,07,11,18,5.30
2021,12,07,11,19,5.30
2021,12,07,11,20,5.30
2021,12,07,11,21,5.30
2021,12,07,11,22,5.30
2021,12,07,11,23,5.30
2021,12,07,11,24,5.30
2021,12,07,11,25,5.30
2021,12,07,11,26,5.40
2021,12,07,11,27,5.40
2021,12,07,11,28,5.40
2021,12,07,11,29,5.40
2021,12,07,11,30,5.40
2021,12,07,11,31,5.40
2021,12,07,11,32,5.40
2021,12,07,11,33,5.40
2021,12,07,11,34,5.40
2021,12,07,11,35,5.40
2021,12,07,11,36,5.40
2021,12,07,11,37,5.40
2021,12,07,11,38,5.40
2021,12,07,11,39,5.40
2021,12,07,11,40,5.50
2021,12,07,11,41,5.50
2021,12,07,11,42,5.50
2021,12,07,11,43,5.60
2021,12,07,11,44,5.60
2021,12,07,11,45,5.60
2021,12,07,11,46,5.60
2021,12,07,11,47,5.60
2021,12,07,11,48,5.60
2021,12,07,11,49,5.60
2021,12,07,11,50,5.60
2021,12,07,11,51,5.60
2021,12,07,11,52,5.60
2021,12,07,11,53,5.60
2021,12,07,11,54,5.60
2021,12,07,11,55,5.60
2021,12,07,11,56,5.60
2021,12,07,11,57,5.60
2021,12,07,11,58,5.60
2021,12,07,11,59,5.60
2021,12,07,12,00,5.60
2021,12,07,12,01,5.60
2021,12,07,12,02,5.60
2021,12,07,12,03,5.60
2021,12,07,12,04,5.60
2021,12,07,12,05,5.60
2021,12,07,12,06,5.60
2021,12,07,12,07,5.60
2021,12,07,12,08,5.60
2021,12,07,12,09,5.70
2021,12,07,12,10,5.70
2021,12,07,12,11,5.70
2021,12,07,12,12,5.70
2021,12,07,12,13,5.70
2021,12,07,12,14,5.70
2021,12,07,12,15,5.70
2021,12,07,12,16,5.70
2021,12,07,12,17,5.70
2021,12,07,12,18,5.70
2021,12,07,12,19,5.70
2021,12,07,12,20,5.70
2021,12,07,12,21,5.70
2021,12,07,12,22,5.80
2021,12,07,12,23,5.80
2021,12,07,12,24,5.80
2021,12,07,12,25,5.80
2021,12,07,12,26,5.80
2021,12,07,12,27,5.80
2021,12,07,12,28,5.80
2021,12,07,12,29,5.80
2021,12,07,12,30,5.80
2021,12,07,12,31,5.80
2021,12,07,12,32,5.80
2021,12,07,12,33,5.80
2021,12,07,12,34,5.80
2021,12,07,12,35,5.80
2021,12,07,12,36,5.80
2021,12,07,12,37,5.90
2021,12,07,12,38,5.90
2021,12,07,12,39,5.90
2021,12,07,12,40,5.90
2021,12,07,12,41,5.90
2021,12,07,12,42,5.90
2021,12,07,12,43,5.90
2021,12,07,12,44,5.90
2021,12,07,12,45,5.90
2021,12,07,12,46,5.90
2021,12,07,12,47,6.00
2021,12,07,12,48,6.00
2021,12,07,12,49,6.00
2021,12,07,12,50,6.00
2021,12,07,12,51,6.00
2021,12,07,12,52,6.00
2021,12,07,12,53,6.00
2021,12,07,12,54,5.90
2021,12,07,12,55,5.90
2021,12,07,12,56,5.90
2021,12,07,12,57,5.90
2021,12,07,12,58,6.00
2021,12,07,12,59,6.00
2021,12,07,13,00,6.00
2021,12,07,13,01,6.00
2021,12,07,13,02,6.00
2021,12,07,13,03,6.00
2021,12,07,13,04,6.00
2021,12,07,13,05,6.10
2021,12,07,13,06,6.10
2021,12,07,13,07,6.10
2021,12,07,13,08,6.10
2021,12,07,13,09,6.10
2021,12,07,13,10,6.10
2021,12,07,13,11,6.10
2021,12,07,13,12,6.10
2021,12,07,13,13,6.10
2021,12,07,13,14,6.10
2021,12,07,13,15,6.20
2021,12,07,13,16,6.20
2021,12,07,13,17,6.20
2021,12,07,13,18,6.20
2021,12,07,13,19,6.20
2021,12,07,13,20,6.20
2021,12,07,13,21,6.20
2021,12,07,13,22,6.20
2021,12,07,13,23,6.20
2021,12,07,13,24,6.20
2021,12,07,13,25,6.20
2021,12,07,13,26,6.20
2021,12,07,13,27,6.20
2021,12,07,13,28,6.20
2021,12,07,13,29,6.20
2021,12,07,13,30,6.20
2021,12,07,13,31,6.20
2021,12,07,13,32,6.30
2021,12,07,13,33,6.30
2021,12,07,13,34,6.30
2021,12,07,13,35,6.30
2021,12,07,13,36,6.30
2021,12,07,13,37,6.30
2021,12,07,13,38,6.30
2021,12,07,13,39,6.30
2021,12,07,13,40,6.30
2021,12,07,13,41,6.30
2021,12,07,13,42,6.30
2021,12,07,13,43,6.30
2021,12,07,13,44,6.30
2021,12,07,13,45,6.30
2021,12,07,13,46,6.30
2021,12,07,13,47,6.30
2021,12,07,13,48,6.30
2021,12,07,13,49,6.30
2021,12,07,13,50,6.30
2021,12,07,13,51,6.30
2021,12,07,13,52,6.30
2021,12,07,13,53,6.30
2021,12,07,13,54,6.30
2021,12,07,13,55,6.30
2021,12,07,13,56,6.30
2021,12,07,13,57,6.30
2021,12,07,13,58,6.30
2021,12,07,13,59,6.30
2021,12,07,14,00,6.30
2021,12,07,14,01,6.30
2021,12,07,14,02,6.30
2021,12,07,14,03,6.30
2021,12,07,14,04,6.40
2021,12,07,14,05,6.40
2021,12,07,14,06,6.40
2021,12,07,14,07,6.30
2021,12,07,14,08,6.30
2021,12,07,14,09,6.30
2021,12,07,14,10,6.30
2021,12,07,14,11,6.30
2021,12,07,14,12,6.30
2021,12,07,14,13,6.30
2021,12,07,14,14,6.30
2021,12,07,14,15,6.30
2021,12,07,14,16,6.30
2021,12,07,14,17,6.30
2021,12,07,14,18,6.30
2021,12,07,14,19,6.30
2021,12,07,14,20,6.30
2021,12,07,14,21,6.30
2021,12,07,14,22,6.30
2021,12,07,14,23,6.30
2021,12,07,14,24,6.30
2021,12,07,14,25,6.30
2021,12,07,14,26,6.30
2021,12,07,14,27,6.30
2021,12,07,14,28,6.30
2021,12,07,14,29,6.30
2021,12,07,14,30,6.30
2021,12,07,14,31,6.30
2021,12,07,14,32,6.30
2021,12,07,14,33,6.30
2021,12,07,14,34,6.30
2021,12,07,14,35,6.30
2021,12,07,14,36,6.30
2021,12,07,14,37,6.40
2021,12,07,14,38,6.40
2021,12,07,14,39,6.40
2021,12,07,14,40,6.40
2021,12,07,14,41,6.40
2021,12,07,14,42,6.40
2021,12,07,14,43,6.40
2021,12,07,14,44,6.40
2021,12,07,14,45,6.50
2021,12,07,14,46,6.50
2021,12,07,14,47,6.50
2021,12,07,14,48,6.50
2021,12,07,14,49,6.50
2021,12,07,14,50,6.50
2021,12,07,14,51,6.50
2021,12,07,14,52,6.50
2021,12,07,14,53,6.50
2021,12,07,14,54,6.50
2021,12,07,14,55,6.50
2021,12,07,14,56,6.50
2021,12,07,14,57,6.50
2021,12,07,14,58,6.50
2021,12,07,14,59,6.50
2021,12,07,15,00,6.50
2021,12,07,15,01,6.50
2021,12,07,15,02,6.50
2021,12,07,15,03,6.50
2021,12,07,15,04,6.50
2021,12,07,15,05,6.50
2021,12,07,15,06,6.50
2021,12,07,15,07,6.60
2021,12,07,15,08,6.60
2021,12,07,15,09,6.60
2021,12,07,15,10,6.60
2021,12,07,15,11,6.60
2021,12,07,15,12,6.60
2021,12,07,15,13,6.60
2021,12,07,15,14,6.60
2021,12,07,15,15,6.60
2021,12,07,15,16,6.60
2021,12,07,15,17,6.60
2021,12,07,15,18,6.60
2021,12,07,15,19,6.60
2021,12,07,15,20,6.60
2021,12,07,15,21,6.70
2021,12,07,15,22,6.70
2021,12,07,15,23,6.70
2021,12,07,15,24,6.70
2021,12,07,15,25,6.70
2021,12,07,15,26,6.70
2021,12,07,15,27,6.70
2021,12,07,15,28,6.70
2021,12,07,15,29,6.70
2021,12,07,15,30,6.70
2021,12,07,15,31,6.70
2021,12,07,15,32,6.70
2021,12,07,15,33,6.70
2021,12,07,15,34,6.70
2021,12,07,15,35,6.70
2021,12,07,15,36,6.70
2021,12,07,15,37,6.70
2021,12,07,15,38,6.70
2021,12,07,15,39,6.70
2021,12,07,15,40,6.70
2021,12,07,15,41,6.70
2021,12,07,15,42,6.70
2021,12,07,15,43,6.80
2021,12,07,15,44,6.80
2021,12,07,15,45,6.80
2021,12,07,15,46,6.80
2021,12,07,15,47,6.80
2021,12,07,15,48,6.80
2021,12,07,15,49,6.80
2021,12,07,15,50,6.80
2021,12,07,15,51,6.90
2021,12,07,15,52,6.90
2021,12,07,15,53,6.90
2021,12,07,15,54,6.90
2021,12,07,15,55,6.90
2021,12,07,15,56,6.90
2021,12,07,15,57,6.90
2021,12,07,15,58,6.90
2021,12,07,15,59,6.90
2021,12,07,16,00,6.90
2021,12,07,16,01,6.90
2021,12,07,16,02,6.90
2021,12,07,16,03,6.90
2021,12,07,16,04,6.90
2021,12,07,16,05,6.90
2021,12,07,16,06,6.90
2021,12,07,16,07,6.90
2021,12,07,16,08,6.90
2021,12,07,16,09,6.90
2021,12,07,16,10,6.90
2021,12,07,16,11,6.90
2021,12,07,16,12,6.90
2021,12,07,16,13,6.90
2021,12,07,16,14,7.00
2021,12,07,16,15,7.00
2021,12,07,16,16,6.90
2021,12,07,16,17,6.90
2021,12,07,16,18,6.90
2021,12,07,16,19,6.90
2021,12,07,16,20,6.90
2021,12,07,16,21,6.90
2021,12,07,16,22,6.90
2021,12,07,16,23,6.90
2021,12,07,16,24,6.90
2021,12,07,16,25,6.90
2021,12,07,16,26,6.90
2021,12,07,16,27,6.90
2021,12,07,16,28,6.90
2021,12,07,16,29,6.90
2021,12,07,16,30,6.90
2021,12,07,16,31,6.90
2021,12,07,16,32,6.90
2021,12,07,16,33,6.90
2021,12,07,16,34,6.90
2021,12,07,16,35,6.90
2021,12,07,16,36,6.90
2021,12,07,16,37,6.90
2021,12,07,16,38,6.90
2021,12,07,16,39,6.90
2021,12,07,16,40,6.90
2021,12,07,16,41,6.90
2021,12,07,16,42,6.90
2021,12,07,16,43,6.90
2021,12,07,16,44,6.90
2021,12,07,16,45,6.90
2021,12,07,16,46,6.90
2021,12,07,16,47,6.90
2021,12,07,16,48,6.90
2021,12,07,16,49,6.90
2021,12,07,16,50,6.90
2021,12,07,16,51,6.90
2021,12,07,16,52,6.90
2021,12,07,16,53,6.90
2021,12,07,16,54,6.90
2021,12,07,16,55,6.90
2021,12,07,16,56,6.90
2021,12,07,16,57,6.90
2021,12,07,16,58,6.90
2021,12,07,16,59,6.90
2021,12,07,17,00,6.90
2021,12,07,17,01,6.90
2021,12,07,17,02,6.90
2021,12,07,17,03,6.90
2021,12,07,17,04,6.90
2021,12,07,17,05,6.90
2021,12,07,17,06,6.90
2021,12,07,17,07,6.90
2021,12,07,17,08,6.90
2021,12,07,17,09,7.00
2021,12,07,17,10,7.00
2021,12,07,17,11,7.00
2021,12,07,17,12,7.00
2021,12,07,17,13,7.00
2021,12,07,17,14,7.00
2021,12,07,17,15,7.00
2021,12,07,17,16,7.00
2021,12,07,17,17,7.00
2021,12,07,17,18,7.00
2021,12,07,17,19,7.00
2021,12,07,17,20,7.00
2021,12,07,17,21,7.00
2021,12,07,17,22,7.00
2021,12,07,17,23,7.00
2021,12,07,17,24,7.00
2021,12,07,17,25,7.00
2021,12,07,17,26,7.00
2021,12,07,17,27,7.00
2021,12,07,17,28,7.00
2021,12,07,17,29,7.00
2021,12,07,17,30,7.00
2021,12,07,17,31,6.90
2021,12,07,17,32,6.90
2021,12,07,17,33,6.90
2021,12,07,17,34,6.90
2021,12,07,17,35,6.90
2021,12,07,17,36,6.90
2021,12,07,17,37,6.80
2021,12,07,17,38,6.80
2021,12,07,17,39,6.80
2021,12,07,17,40,6.80
2021,12,07,17,41,6.80
2021,12,07,17,42,6.80
2021,12,07,17,43,6.80
2021,12,07,17,44,6.80
2021,12,07,17,45,6.80
2021,12,07,17,46,6.80
2021,12,07,17,47,6.80
2021,12,07,17,48,6.70
2021,12,07,17,49,6.70
2021,12,07,17,50,6.80
2021,12,07,17,51,6.80
2021,12,07,17,52,6.80
2021,12,07,17,53,6.80
2021,12,07,17,54,6.80
2021,12,07,17,55,6.80
2021,12,07,17,56,6.80
2021,12,07,17,57,6.80
2021,12,07,17,58,6.80
2021,12,07,17,59,6.80
2021,12,07,18,00,6.80
2021,12,07,18,01,6.80
2021,12,07,18,02,6.80
2021,12,07,18,03,6.80
2021,12,07,18,04,6.80
2021,12,07,18,05,6.80
2021,12,07,18,06,6.80
2021,12,07,18,07,6.80
2021,12,07,18,08,6.80
2021,12,07,18,09,6.80
2021,12,07,18,10,6.80
2021,12,07,18,11,6.80
2021,12,07,18,12,6.80
2021,12,07,18,13,6.70
2021,12,07,18,14,6.70
2021,12,07,18,15,6.70
2021,12,07,18,16,6.70
2021,12,07,18,17,6.70
2021,12,07,18,18,6.70
2021,12,07,18,19,6.70
2021,12,07,18,20,6.70
2021,12,07,18,21,6.70
2021,12,07,18,22,6.70
2021,12,07,18,23,6.70
2021,12,07,18,24,6.70
2021,12,07,18,25,6.70
2021,12,07,18,26,6.70
2021,12,07,18,27,6.70
2021,12,07,18,28,6.70
2021,12,07,18,29,6.70
2021,12,07,18,30,6.70
2021,12,07,18,31,6.70
2021,12,07,18,32,6.70
2021,12,07,18,33,6.70
2021,12,07,18,34,6.70
2021,12,07,18,35,6.70
2021,12,07,18,36,6.70
2021,12,07,18,37,6.70
2021,12,07,18,38,6.70
2021,12,07,18,39,6.70
2021,12,07,18,40,6.70
2021,12,07,18,41,6.70
2021,12,07,18,42,6.70
2021,12,07,18,43,6.70
2021,12,07,18,44,6.60
2021,12,07,18,45,6.60
2021,12,07,18,46,6.60
2021,12,07,18,47,6.60
2021,12,07,18,48,6.60
2021,12,07,18,49,6.60
2021,12,07,18,50,6.60
2021,12,07,18,51,6.60
2021,12,07,18,52,6.60
2021,12,07,18,53,6.60
2021,12,07,18,54,6.60
2021,12,07,18,55,6.60
2021,12,07,18,56,6.60
2021,12,07,18,57,6.60
2021,12,07,18,58,6.60
2021,12,07,18,59,6.60
2021,12,07,19,00,6.60
2021,12,07,19,01,6.60
2021,12,07,19,02,6.60
2021,12,07,19,03,6.60
2021,12,07,19,04,6.60
2021,12,07,19,05,6.60
2021,12,07,19,06,6.60
2021,12,07,19,07,6.60
2021,12,07,19,08,6.60
2021,12,07,19,09,6.60
2021,12,07,19,10,6.60
2021,12,07,19,11,6.60
2021,12,07,19,12,6.60
2021,12,07,19,13,6.60
2021,12,07,19,14,6.60
2021,12,07,19,15,6.60
2021,12,07,19,16,6.60
2021,12,07,19,17,6.60
2021,12,07,19,18,6.60
2021,12,07,19,19,6.60
2021,12,07,19,20,6.60
2021,12,07,19,21,6.60
2021,12,07,19,22,6.60
2021,12,07,19,23,6.60
2021,12,07,19,24,6.60
2021,12,07,19,25,6.60
2021,12,07,19,26,6.60
2021,12,07,19,27,6.60
2021,12,07,19,28,6.60
2021,12,07,19,29,6.60
2021,12,07,19,30,6.50
2021,12,07,19,31,6.50
2021,12,07,19,32,6.60
2021,12,07,19,33,6.50
2021,12,07,19,34,6.50
2021,12,07,19,35,6.50
2021,12,07,19,36,6.60
2021,12,07,19,37,6.60
2021,12,07,19,38,6.60
2021,12,07,19,39,6.50
2021,12,07,19,40,6.50
2021,12,07,19,41,6.50
2021,12,07,19,42,6.50
2021,12,07,19,43,6.50
2021,12,07,19,44,6.50
2021,12,07,19,45,6.50
2021,12,07,19,46,6.40
2021,12,07,19,47,6.40
2021,12,07,19,48,6.40
2021,12,07,19,49,6.40
2021,12,07,19,50,6.40
2021,12,07,19,51,6.40
2021,12,07,19,52,6.40
2021,12,07,19,53,6.40
2021,12,07,19,54,6.40
2021,12,07,19,55,6.40
2021,12,07,19,56,6.40
2021,12,07,19,57,6.40
2021,12,07,19,58,6.40
2021,12,07,19,59,6.40
2021,12,07,20,00,6.40
2021,12,07,20,01,6.40
2021,12,07,20,02,6.40
2021,12,07,20,03,6.40
2021,12,07,20,04,6.50
2021,12,07,20,05,6.50
2021,12,07,20,06,6.50
2021,12,07,20,07,6.50
2021,12,07,20,08,6.50
2021,12,07,20,09,6.50
2021,12,07,20,10,6.50
2021,12,07,20,11,6.50
2021,12,07,20,12,6.50
2021,12,07,20,13,6.40
2021,12,07,20,14,6.40
2021,12,07,20,15,6.40
2021,12,07,20,16,6.40
2021,12,07,20,17,6.40
2021,12,07,20,18,6.40
2021,12,07,20,19,6.40
2021,12,07,20,20,6.40
2021,12,07,20,21,6.40
2021,12,07,20,22,6.40
2021,12,07,20,23,6.50
2021,12,07,20,24,6.50
2021,12,07,20,25,6.50
2021,12,07,20,26,6.50
2021,12,07,20,27,6.50
2021,12,07,20,28,6.50
2021,12,07,20,29,6.60
2021,12,07,20,30,6.60
2021,12,07,20,31,6.60
2021,12,07,20,32,6.60
2021,12,07,20,33,6.60
2021,12,07,20,34,6.60
2021,12,07,20,35,6.60
2021,12,07,20,36,6.60
2021,12,07,20,37,6.60
2021,12,07,20,38,6.60
2021,12,07,20,39,6.60
2021,12,07,20,40,6.50
2021,12,07,20,41,6.50
2021,12,07,20,42,6.50
2021,12,07,20,43,6.50
2021,12,07,20,44,6.50
2021,12,07,20,45,6.50
2021,12,07,20,46,6.50
2021,12,07,20,47,6.50
2021,12,07,20,48,6.50
2021,12,07,20,49,6.50
2021,12,07,20,50,6.50
2021,12,07,20,51,6.50
2021,12,07,20,52,6.50
2021,12,07,20,53,6.50
2021,12,07,20,54,6.60
2021,12,07,20,55,6.60
2021,12,07,20,56,6.60
2021,12,07,20,57,6.60
2021,12,07,20,58,6.50
2021,12,07,20,59,6.50
2021,12,07,21,00,6.40
2021,12,07,21,01,6.40
2021,12,07,21,02,6.40
2021,12,07,21,03,6.40
2021,12,07,21,04,6.40
2021,12,07,21,05,6.30
2021,12,07,21,06,6.30
2021,12,07,21,07,6.30
2021,12,07,21,08,6.30
2021,12,07,21,09,6.30
2021,12,07,21,10,6.30
2021,12,07,21,11,6.30
2021,12,07,21,12,6.30
2021,12,07,21,13,6.30
2021,12,07,21,14,6.30
2021,12,07,21,15,6.30
2021,12,07,21,16,6.30
2021,12,07,21,17,6.30
2021,12,07,21,18,6.30
2021,12,07,21,19,6.30
2021,12,07,21,20,6.30
2021,12,07,21,21,6.30
2021,12,07,21,22,6.30
2021,12,07,21,23,6.30
2021,12,07,21,24,6.30
2021,12,07,21,25,6.30
2021,12,07,21,26,6.30
2021,12,07,21,27,6.30
2021,12,07,21,28,6.30
2021,12,07,21,29,6.30
2021,12,07,21,30,6.30
2021,12,07,21,31,6.30
2021,12,07,21,32,6.40
2021,12,07,21,33,6.40
2021,12,07,21,34,6.40
2021,12,07,21,35,6.40
2021,12,07,21,36,6.40
2021,12,07,21,37,6.40
2021,12,07,21,38,6.40
2021,12,07,21,39,6.40
2021,12,07,21,40,6.40
2021,12,07,21,41,6.40
2021,12,07,21,42,6.40
2021,12,07,21,43,6.40
2021,12,07,21,44,6.40
2021,12,07,21,45,6.40
2021,12,07,21,46,6.40
2021,12,07,21,47,6.40
2021,12,07,21,48,6.50
2021,12,07,21,49,6.50
2021,12,07,21,50,6.50
2021,12,07,21,51,6.50
2021,12,07,21,52,6.50
2021,12,07,21,53,6.50
2021,12,07,21,54,6.50
2021,12,07,21,55,6.50
2021,12,07,21,56,6.50
2021,12,07,21,57,6.50
2021,12,07,21,58,6.50
2021,12,07,21,59,6.50
2021,12,07,22,00,6.50
2021,12,07,22,01,6.50
2021,12,07,22,02,6.50
2021,12,07,22,03,6.50
2021,12,07,22,04,6.50
2021,12,07,22,05,6.50
2021,12,07,22,06,6.50
2021,12,07,22,07,6.50
2021,12,07,22,08,6.50
2021,12,07,22,09,6.50
2021,12,07,22,10,6.50
2021,12,07,22,11,6.50
2021,12,07,22,12,6.50
2021,12,07,22,13,6.60
2021,12,07,22,14,6.60
2021,12,07,22,15,6.60
2021,12,07,22,16,6.60
2021,12,07,22,17,6.60
2021,12,07,22,18,6.60
2021,12,07,22,19,6.60
2021,12,07,22,20,6.60
2021,12,07,22,21,6.60
2021,12,07,22,22,6.60
2021,12,07,22,23,6.60
2021,12,07,22,24,6.60
2021,12,07,22,25,6.60
2021,12,07,22,26,6.60
2021,12,07,22,27,6.60
2021,12,07,22,28,6.60
2021,12,07,22,29,6.60
2021,12,07,22,30,6.70
2021,12,07,22,31,6.70
2021,12,07,22,32,6.70
2021,12,07,22,33,6.70
2021,12,07,22,34,6.70
2021,12,07,22,35,6.70
2021,12,07,22,36,6.70
2021,12,07,22,37,6.70
2021,12,07,22,38,6.70
2021,12,07,22,39,6.70
2021,12,07,22,40,6.70
2021,12,07,22,41,6.70
2021,12,07,22,42,6.70
2021,12,07,22,43,6.70
2021,12,07,22,44,6.70
2021,12,07,22,45,6.70
2021,12,07,22,46,6.70
2021,12,07,22,47,6.70
2021,12,07,22,48,6.70
2021,12,07,22,49,6.70
2021,12,07,22,50,6.70
2021,12,07,22,51,6.70
2021,12,07,22,52,6.80
2021,12,07,22,53,6.70
2021,12,07,22,54,6.80
2021,12,07,22,55,6.70
2021,12,07,22,56,6.70
2021,12,07,22,57,6.70
2021,12,07,22,58,6.70
2021,12,07,22,59,6.70
2021,12,07,23,00,6.70
2021,12,07,23,01,6.70
2021,12,07,23,02,6.70
2021,12,07,23,03,6.80
2021,12,07,23,04,6.80
2021,12,07,23,05,6.80
2021,12,07,23,06,6.80
2021,12,07,23,07,6.80
2021,12,07,23,08,6.80
2021,12,07,23,09,6.80
2021,12,07,23,10,6.80
2021,12,07,23,11,6.80
2021,12,07,23,12,6.80
2021,12,07,23,13,6.80
2021,12,07,23,14,6.80
2021,12,07,23,15,6.80
2021,12,07,23,16,6.90
2021,12,07,23,17,6.90
2021,12,07,23,18,6.90
2021,12,07,23,19,6.90
2021,12,07,23,20,7.00
2021,12,07,23,21,7.00
2021,12,07,23,22,7.00
2021,12,07,23,23,7.10
2021,12,07,23,24,7.10
2021,12,07,23,25,7.10
2021,12,07,23,26,7.10
2021,12,07,23,27,7.20
2021,12,07,23,28,7.20
2021,12,07,23,29,7.20
2021,12,07,23,30,7.20
2021,12,07,23,31,7.20
2021,12,07,23,32,7.30
2021,12,07,23,33,7.30
2021,12,07,23,34,7.30
2021,12,07,23,35,7.40
2021,12,07,23,36,7.40
2021,12,07,23,37,7.40
2021,12,07,23,38,7.40
2021,12,07,23,39,7.40
2021,12,07,23,40,7.50
2021,12,07,23,41,7.50
2021,12,07,23,42,7.50
2021,12,07,23,43,7.60
2021,12,07,23,44,7.60
2021,12,07,23,45,7.60
2021,12,07,23,46,7.60
2021,12,07,23,47,7.70
2021,12,07,23,48,7.70
2021,12,07,23,49,7.70
2021,12,07,23,50,7.70
2021,12,07,23,51,7.70
2021,12,07,23,52,7.80
2021,12,07,23,53,7.80
2021,12,07,23,54,7.80
2021,12,07,23,55,7.80
2021,12,07,23,56,7.80
2021,12,07,23,57,7.80
2021,12,07,23,58,7.90
2021,12,07,23,59,7.90
